Погода в Льюкмайоре

Испания     39°29′09″N   2°53′23″E
темп.,
°C
ветер,
м/с
пор.,
м/с
влажн.,
%
обл.,
%
осадки,
мм/ч
давл.,
гПа
погр.,
м
22 октября, пт
пт2223:00+19св5763100 0.0 1017634
02:00+18св510668 0.0 1017541
05:00+17св49729 0.0 1017320
08:00+17св4972100 0.2 1017414
11:00+18св6971100 1.8 1019829
14:00+17св6970100 3.3 1018895
17:00+15св4986100 5.0 1019527
20:00+16св51177100 6.7 1019605
23 октября, сб
сб2323:00+16св4107689 0.1 1020373
02:00+17св61169100 0.2 1019573
05:00+17св71261100 0.0 1019701
08:00+17св7126550 0.0 1020647
11:00+18ссв81055100 0.0 10211202
14:00+20ссв774780 0.0 10211392
17:00+19ссв6650100 0.0 10201101
20:00+15ссв4961100 0.0 1021285
24 октября, вс
вс2423:00+14с236899 0.0 102258
02:00+14сз236345 0.0 102127
05:00+13ссз22630 0.0 102017
08:00+13сз22820 0.0 102125
11:00+18ссз466255 0.0 1022735
14:00+21с566194 0.3 10211293
17:00+20с556625 0.4 1020967
20:00+16с238423 0.4 102164
25 октября, пн
пн2523:00+15ссз12884 0.0 102214
02:00+14сз22880 0.0 102115
05:00+14сз11870 0.0 102011
08:00+14ссз11850 0.0 102011
11:00+20ссв23671 0.0 1021522
14:00+23всв225592 0.4 10201457
17:00+20св236754 1.9 1019579
20:00+17ссв3586100 2.2 1021101
26 октября, вт
вт2623:00+17св3587100 0.0 1022113
02:00+16св3385100 0.0 102154
05:00+16ссв3588100 0.0 102192
08:00+15св378394 0.0 1021130
11:00+19св675857 0.0 10221011
14:00+21св7752100 0.0 10221294
17:00+19св7857100 0.0 10211079
20:00+16св497377 0.0 1022273